Location: Budapest
(47.4979°N, 19.0402°E)
Time: 11:03:39
(UTC+02:00)

ISS - Pass Details

Date: 15 October 2017
Orbit: 401 x 408 km, 51.6° (Epoch: 20 October)

Event Time Altitude Azimuth Distance (km) Brightness Sun altitude
Rises 18:22:27 0° 292° (WNW) 2,325 1.2 -5.3°
Reaches altitude 10° 18:24:35 10° 285° (WNW) 1,464 0.3 -5.6°
Maximum altitude 18:27:42 41° 214° (SSW) 597 -2.6 -6.1°
Drops below altitude 10° 18:30:49 10° 142° (SE) 1,460 -1.3 -6.7°
Sets 18:32:57 0° 135° (SE) 2,318 -0.4 -7.0°
